When you browse on this site, cookies collect data to enhance your experience and personalize the content and advertising you see.
Visit our Privacy Policy to learn more. By continuing to use the site, you agree to this use of cookies and data.
  • In United Kingdom
  • List of Countries
  • For 7 days
  • Water Temperature
  • Weather Map
  • Weather Widgets
  • user-avatar
    Login

    Hourly Weather Toledo

    Today, 26 August, Monday

    Time Temperature Precipitation Wind Pressure Humidity
    00:00 +17°C° 0 mm 5 mps 747 mmHg 75%
    01:00 +16°C° 0 mm 5 mps 746 mmHg 76%
    02:00 +16°C° 0 mm 5 mps 746 mmHg 77%
    03:00 +15°C° 0 mm 5 mps 746 mmHg 78%
    04:00 +15°C° 0 mm 5 mps 746 mmHg 79%
    05:00 +15°C° 0 mm 5 mps 746 mmHg 80%
    06:00 +15°C° 0 mm 5 mps 746 mmHg 81%
    07:00 +17°C° 0 mm 5 mps 746 mmHg 78%
    08:00 +19°C° 0 mm 5 mps 746 mmHg 76%
    09:00 +21°C° 0 mm 6 mps 746 mmHg 74%
    10:00 +22°C° 0 mm 6 mps 745 mmHg 73%
    11:00 +22°C° 0 mm 6 mps 745 mmHg 73%
    12:00 +23°C° 0 mm 7 mps 744 mmHg 72%
    13:00 +22°C° 2.5 mm 7 mps 743 mmHg 80%
    14:00 +20°C° 2.5 mm 7 mps 743 mmHg 87%
    15:00 +17°C° 2.5 mm 6 mps 742 mmHg 95%
    16:00 +18°C° 1.9 mm 7 mps 742 mmHg 95%
    17:00 +18°C° 1.9 mm 7 mps 742 mmHg 95%
    18:00 +18°C° 1.9 mm 7 mps 742 mmHg 95%
    19:00 +18°C° 0.1 mm 7 mps 742 mmHg 95%
    20:00 +20°C° 0.1 mm 7 mps 741 mmHg 94%
    21:00 +20°C° 0.1 mm 7 mps 741 mmHg 94%
    22:00 +20°C° 0.1 mm 7 mps 741 mmHg 94%
    23:00 +20°C° 0.1 mm 7 mps 741 mmHg 94%

    Tomorrow, 27 August, Tuesday

    Time Temperature Precipitation Wind Pressure Humidity
    00:00 +20°C° 0.1 mm 7 mps 741 mmHg 93%
    01:00 +20°C° 0.6 mm 7 mps 740 mmHg 94%
    02:00 +20°C° 0.6 mm 6 mps 740 mmHg 94%
    03:00 +21°C° 0.6 mm 6 mps 740 mmHg 94%
    04:00 +21°C° 0.1 mm 6 mps 740 mmHg 94%
    05:00 +21°C° 0.1 mm 6 mps 740 mmHg 94%
    06:00 +21°C° 0.1 mm 7 mps 740 mmHg 94%
    07:00 +22°C° 0.2 mm 7 mps 740 mmHg 94%
    08:00 +22°C° 0.2 mm 7 mps 740 mmHg 94%
    09:00 +22°C° 0.2 mm 7 mps 740 mmHg 94%
    10:00 +23°C° 0.5 mm 7 mps 740 mmHg 93%
    11:00 +23°C° 0.5 mm 7 mps 740 mmHg 92%
    12:00 +24°C° 0.5 mm 7 mps 740 mmHg 91%
    13:00 +24°C° 0.8 mm 7 mps 740 mmHg 89%
    14:00 +26°C° 0.8 mm 7 mps 740 mmHg 87%
    15:00 +27°C° 0.8 mm 7 mps 740 mmHg 85%
    16:00 +26°C° 0.2 mm 5 mps 740 mmHg 86%
    17:00 +25°C° 0.2 mm 4 mps 740 mmHg 86%
    18:00 +24°C° 0.2 mm 3 mps 740 mmHg 86%
    19:00 +22°C° 0 mm 3 mps 740 mmHg 86%
    20:00 +20°C° 0 mm 3 mps 741 mmHg 85%
    21:00 +19°C° 0 mm 3 mps 741 mmHg 84%
    22:00 +19°C° 0 mm 3 mps 741 mmHg 86%
    23:00 +18°C° 0 mm 3 mps 741 mmHg 87%

    Day after tomorrow, 28 August, Wednesday

    Time Temperature Precipitation Wind Pressure Humidity
    00:00 +18°C° 0 mm 3 mps 741 mmHg 88%
    01:00 +17°C° 0 mm 3 mps 741 mmHg 89%
    02:00 +17°C° 0 mm 3 mps 742 mmHg 90%
    03:00 +17°C° 0 mm 4 mps 742 mmHg 91%
    04:00 +17°C° 0 mm 4 mps 742 mmHg 90%
    05:00 +17°C° 0 mm 3 mps 742 mmHg 89%
    06:00 +17°C° 0 mm 3 mps 743 mmHg 88%
    07:00 +18°C° 0 mm 4 mps 743 mmHg 81%
    08:00 +20°C° 0 mm 4 mps 743 mmHg 74%
    09:00 +22°C° 0 mm 5 mps 743 mmHg 67%
    10:00 +22°C° 0 mm 6 mps 743 mmHg 65%
    11:00 +23°C° 0 mm 6 mps 743 mmHg 62%
    12:00 +23°C° 0 mm 7 mps 743 mmHg 60%
    13:00 +23°C° 0 mm 7 mps 743 mmHg 62%
    14:00 +23°C° 0 mm 6 mps 743 mmHg 64%
    15:00 +23°C° 0 mm 6 mps 742 mmHg 66%
    16:00 +22°C° 0.1 mm 6 mps 743 mmHg 70%
    17:00 +20°C° 0.1 mm 5 mps 743 mmHg 74%
    18:00 +19°C° 0.1 mm 5 mps 743 mmHg 78%
    19:00 +18°C° 0 mm 4 mps 743 mmHg 79%
    20:00 +17°C° 0 mm 4 mps 744 mmHg 80%
    21:00 +16°C° 0 mm 3 mps 744 mmHg 81%
    22:00 +16°C° 0 mm 3 mps 744 mmHg 84%
    23:00 +14°C° 0 mm 3 mps 744 mmHg 87%

    29 August, Thursday

    Time Temperature Precipitation Wind Pressure Humidity
    00:00 +13°C° 0 mm 3 mps 744 mmHg 89%
    01:00 +13°C° 0 mm 3 mps 744 mmHg 90%
    02:00 +13°C° 0 mm 3 mps 744 mmHg 91%
    03:00 +12°C° 0 mm 3 mps 745 mmHg 91%
    04:00 +12°C° 0 mm 3 mps 745 mmHg 91%
    05:00 +13°C° 0 mm 3 mps 745 mmHg 90%
    06:00 +13°C° 0 mm 3 mps 746 mmHg 90%
    07:00 +16°C° 0 mm 3 mps 746 mmHg 85%
    08:00 +17°C° 0 mm 3 mps 746 mmHg 80%
    09:00 +19°C° 0 mm 3 mps 747 mmHg 75%
    10:00 +20°C° 0 mm 4 mps 747 mmHg 73%
    11:00 +20°C° 0 mm 4 mps 747 mmHg 71%
    12:00 +21°C° 0 mm 4 mps 747 mmHg 69%
    13:00 +21°C° 0 mm 4 mps 746 mmHg 70%
    14:00 +21°C° 0 mm 4 mps 746 mmHg 71%
    15:00 +21°C° 0 mm 4 mps 745 mmHg 72%
    16:00 +20°C° 0 mm 4 mps 745 mmHg 76%
    17:00 +19°C° 0 mm 3 mps 745 mmHg 79%
    18:00 +19°C° 0 mm 3 mps 745 mmHg 83%
    19:00 +18°C° 0 mm 3 mps 745 mmHg 85%
    20:00 +18°C° 0 mm 4 mps 745 mmHg 88%
    21:00 +17°C° 0 mm 4 mps 745 mmHg 90%
    22:00 +17°C° 0 mm 4 mps 745 mmHg 90%
    23:00 +16°C° 0 mm 5 mps 745 mmHg 90%

    30 August, Friday

    Time Temperature Precipitation Wind Pressure Humidity
    00:00 +16°C° 0 mm 5 mps 745 mmHg 90%
    01:00 +16°C° 0 mm 5 mps 745 mmHg 89%
    02:00 +16°C° 0 mm 5 mps 744 mmHg 88%
    03:00 +17°C° 0 mm 5 mps 744 mmHg 87%
    04:00 +17°C° 0 mm 6 mps 745 mmHg 85%
    05:00 +19°C° 0 mm 6 mps 745 mmHg 83%
    06:00 +19°C° 0 mm 6 mps 745 mmHg 82%
    07:00 +20°C° 0 mm 6 mps 745 mmHg 82%
    08:00 +21°C° 0 mm 6 mps 746 mmHg 82%
    09:00 +22°C° 0 mm 6 mps 746 mmHg 82%
    10:00 +23°C° 0.1 mm 5 mps 746 mmHg 83%
    11:00 +23°C° 0.1 mm 5 mps 746 mmHg 83%
    12:00 +23°C° 0.1 mm 4 mps 746 mmHg 83%
    13:00 +25°C° 0 mm 4 mps 746 mmHg 78%
    14:00 +25°C° 0 mm 4 mps 746 mmHg 72%
    15:00 +26°C° 0 mm 4 mps 746 mmHg 66%
    16:00 +23°C° 0 mm 4 mps 747 mmHg 70%
    17:00 +22°C° 0 mm 3 mps 747 mmHg 74%
    18:00 +21°C° 0 mm 3 mps 747 mmHg 78%
    19:00 +20°C° 0 mm 3 mps 748 mmHg 79%
    20:00 +19°C° 0 mm 3 mps 748 mmHg 81%
    21:00 +18°C° 0 mm 3 mps 749 mmHg 83%
    22:00 +17°C° 0 mm 3 mps 749 mmHg 78%
    23:00 +16°C° 0 mm 3 mps 750 mmHg 74%

    31 August, Saturday

    Time Temperature Precipitation Wind Pressure Humidity
    00:00 +16°C° 0 mm 3 mps 750 mmHg 69%
    01:00 +15°C° 0 mm 4 mps 750 mmHg 75%
    02:00 +15°C° 0 mm 4 mps 750 mmHg 80%
    03:00 +15°C° 0 mm 4 mps 751 mmHg 85%
    04:00 +15°C° 0 mm 4 mps 751 mmHg 83%
    05:00 +16°C° 0 mm 3 mps 751 mmHg 81%
    06:00 +16°C° 0 mm 3 mps 751 mmHg 79%
    07:00 +17°C° 0 mm 3 mps 752 mmHg 77%
    08:00 +18°C° 0 mm 3 mps 752 mmHg 75%
    09:00 +18°C° 0 mm 3 mps 752 mmHg 73%
    10:00 +18°C° 0 mm 3 mps 752 mmHg 72%
    11:00 +19°C° 0 mm 2 mps 752 mmHg 71%
    12:00 +19°C° 0 mm 2 mps 752 mmHg 70%
    13:00 +19°C° 0 mm 2 mps 752 mmHg 68%
    14:00 +20°C° 0 mm 2 mps 752 mmHg 67%
    15:00 +20°C° 0 mm 2 mps 751 mmHg 65%
    16:00 +19°C° 0 mm 2 mps 751 mmHg 68%
    17:00 +18°C° 0 mm 2 mps 751 mmHg 72%
    18:00 +17°C° 0 mm 2 mps 751 mmHg 76%
    19:00 +17°C° 0 mm 2 mps 752 mmHg 77%
    20:00 +16°C° 0 mm 2 mps 752 mmHg 78%
    21:00 +15°C° 0 mm 2 mps 752 mmHg 79%
    22:00 +15°C° 0 mm 2 mps 752 mmHg 81%
    23:00 +15°C° 0 mm 2 mps 752 mmHg 83%
    Show more